ACA2243 LOWW-CYUL

Flight info

Callsign ACA2243
Flight time N/A
Altitude 34000
Route MEDIX DCT LAMSI DCT MAMOR DCT PETIX DCT TUSUK DCT ADKUV DCT NIK L610 KOPUL Q63 ICTAM T421 DIDZA DCT CESQA DCT BIBPE DCT OKTAD DCT MEDOG DCT PEMOB DCT BAKUR DCT NEBIN/M085F350 DCT 54N020W 54N030W 5330N04000W 52N050W DCT TUDEP/N0494F360 N530A MIILS DCT KEBIG ROCKT3
Aircraft A35K/H-SDE2E3GHIJ3J4J5LM1ORWXY/LB1D1

Departure

Time 2026-04-22 18:29
Airport Vienna International Airport (LOWW)

Arrival

Time N/A
Airport Montreal / Pierre Elliott Trudeau International Airport (CYUL)
Time Latitude Longitude Altitude Speed Heading
2026-04-22 17:31 48.11669 16.56921 616 ft 0 kts 26°
2026-04-22 18:18 48.11667 16.56920 614 ft 1 kts 26°
2026-04-22 18:19 48.11651 16.56909 631 ft 3 kts 20°
2026-04-22 18:19 48.11632 16.56900 628 ft 3 kts 11°
2026-04-22 18:19 48.11612 16.56896 628 ft 3 kts 356°
2026-04-22 18:19 48.11593 16.56901 628 ft 3 kts 332°
2026-04-22 18:20 48.11580 16.56916 628 ft 2 kts 298°
2026-04-22 18:20 48.11578 16.56920 628 ft 0 kts 296°
2026-04-22 18:22 48.11587 16.56893 628 ft 6 kts 296°
2026-04-22 18:23 48.11616 16.56803 626 ft 13 kts 296°
2026-04-22 18:23 48.11665 16.56653 625 ft 17 kts 296°
2026-04-22 18:23 48.11718 16.56491 628 ft 17 kts 296°
2026-04-22 18:24 48.11716 16.56286 628 ft 9 kts 207°
2026-04-22 18:24 48.11702 16.56276 626 ft 0 kts 207°
2026-04-22 18:24 48.11700 16.56274 626 ft 1 kts 207°
2026-04-22 18:25 48.11678 16.56258 620 ft 7 kts 206°
2026-04-22 18:25 48.11615 16.56213 625 ft 12 kts 201°
2026-04-22 18:25 48.11542 16.56255 619 ft 12 kts 119°
2026-04-22 18:26 48.11461 16.56492 628 ft 14 kts 117°
2026-04-22 18:26 48.11416 16.56624 627 ft 15 kts 117°
2026-04-22 18:26 48.11368 16.56765 625 ft 16 kts 117°
2026-04-22 18:26 48.11320 16.56914 616 ft 16 kts 115°
2026-04-22 18:27 48.11270 16.57069 628 ft 17 kts 115°
2026-04-22 18:27 48.11221 16.57234 628 ft 18 kts 113°
2026-04-22 18:27 48.11165 16.57408 628 ft 19 kts 117°
2026-04-22 18:27 48.11082 16.57526 624 ft 17 kts 190°
2026-04-22 18:28 48.10975 16.57455 628 ft 16 kts 208°
2026-04-22 18:28 48.10966 16.57379 628 ft 6 kts 293°
2026-04-22 18:28 48.10999 16.57279 628 ft 20 kts 296°
2026-04-22 18:28 48.11148 16.56824 628 ft 77 kts 296°
2026-04-22 18:29 48.11465 16.55875 628 ft 125 kts 294°
2026-04-22 18:29 48.11896 16.54510 685 ft 157 kts 296°
2026-04-22 18:29 48.12310 16.53008 1133 ft 159 kts 291°
2026-04-22 18:29 48.12268 16.51325 1562 ft 164 kts 261°